Погода в Стененках

Россия / Калужская область     54°49′30″N   34°58′18″E
темп.,
°C
ветер,
м/с
пор.,
м/с
влажн.,
%
обл.,
%
осадки,
мм/ч
давл.,
гПа
погр.,
м
15 мая, сб
сб1500:00+12в269998 0.6 1008120
03:00+11юв2598100 0.6 1008112
06:00+12ю25975 0.0 1007135
09:00+17ююз357913 0.1 1007420
12:00+20ю475811 0.8 10081575
15:00+21ююз475093 1.3 10072182
18:00+18ю477515 1.1 1007836
21:00+13ю289689 2.1 1008179
16 мая, вс
вс1600:00+12ююз3109755 0.8 1009279
03:00+10ю399819 0.8 1010220
06:00+11ююз310975 0.0 1011303
09:00+16ююз488011 0.0 1012674
12:00+19юз576768 0.6 10121473
15:00+19юз466785 1.9 10121296
18:00+19юз25660 0.0 10131088
21:00+14юз128994 0.1 101411
17 мая, пн
пн1700:00+12юв119296 0.0 101410
03:00+11в129416 0.0 101413
06:00+12вюв2693100 0.0 1014148
09:00+18вюв3768100 0.0 1013493
12:00+23вюв575937 0.0 10111045
15:00+25юв61053100 0.0 10091405
18:00+23вюв51166100 0.0 1007993
21:00+19вюв5157672 0.0 1007731
18 мая, вт
вт1800:00+17юв4148289 0.0 1006525
03:00+16вюв4128978 0.0 1005379
06:00+16вюв41288100 0.0 1004408
09:00+20юв51075100 0.1 1003624
12:00+23ююв71159100 0.0 10031526
15:00+24ююв7125771 0.0 10021735
18:00+17ююв7128697 1.4 10021119
21:00+15ю5129066 1.7 1004891
19 мая, ср
ср1900:00+13юв279982 0.3 1004179
03:00+13вюв3998100 0.6 1003284
06:00+14юв3998100 1.1 1002401
09:00+14юв379599 1.2 1001529
12:00+15ююв4795100 1.4 999786
15:00+13ююв3897100 7.7 999514
18:00+10зюз51297100 5.3 1000591
21:00+10юз41097100 11.7 1003694